Weather History for Dyersburg, TN

Change the Weather History Date:

Saturday, February 4, 2012

  Actual Average Record
Temperature  
Mean Temperature 58 °F -  
Max Temperature 60 °F 46 °F 73 °F (2008)
Min Temperature 55 °F 32 °F 17 °F (2009)
Degree Days  
Heating Degree Days 8    
Growing Degree Days 8 (Base 50)    
Moisture  
Dew Point 51 °F    
Average Humidity 78    
Maximum Humidity 88    
Minimum Humidity 72    
Precipitation  
Precipitation 0.52 in - - ()
Sea Level Pressure  
Sea Level Pressure 30.06 in    
Wind  
Wind Speed 8 mph (SSW)    
Max Wind Speed 17 mph    
Max Gust Speed 23 mph    
Visibility 8 miles    
Events Thunderstorm    
Averages and records for this station are not official NWS values.
T = Trace of Precipitation, MM = Missing Value Source: NWS Daily Summary

Daily Weather History Graph

Daily Weather History Graph

Search for Another Location

Airport:

Trip Planner

Search our weather history database for the weather conditions in past years. The results will help you decide how hot, cold, wet, or windy it might be!

Date:

Astronomy

Feb. 04, 2012 Rise Set
Actual Time 6:56 AM CST 5:27 PM CST
Civil Twilight 6:29 AM CST 5:54 PM CST
Nautical Twilight 5:58 AM CST 6:24 PM CST
Astronomical Twilight 5:28 AM CST 6:54 PM CST
Moon 2:28 PM CST (2/4) 4:17 AM CST (2/4)
Length of Visible Light 11h 24m
Length of Day
10h 31m
Waxing Gibbous, 89% of the Moon is Illuminated
Feb 4
Waxing Gibbous
Feb 7
Full
Feb 14
Last Quarter
Feb 21
New
Feb 29
First Quarter

Hourly Weather History & Observations

Time (CST) Temp. Dew Point Humidity Pressure Visibility Wind Dir Wind Speed Gust Speed Precip Events Conditions
12:15 AM 55.4 °F 48.2 °F 77% 30.11 in 10.0 mi SSE 10.4 mph - N/A   Overcast
12:35 AM 55.4 °F 48.2 °F 77% 30.12 in 10.0 mi South 6.9 mph - N/A   Overcast
12:55 AM 55.4 °F 48.2 °F 77% 30.11 in 10.0 mi SSE 9.2 mph - N/A   Overcast
1:15 AM 55.4 °F 48.2 °F 77% 30.10 in 10.0 mi SSE 9.2 mph - N/A   Overcast
1:35 AM 55.4 °F 48.2 °F 77% 30.09 in 10.0 mi SSE 6.9 mph - N/A   Overcast
1:55 AM 57.2 °F 48.2 °F 72% 30.08 in 10.0 mi SSE 8.1 mph - N/A   Overcast
2:15 AM 57.2 °F 48.2 °F 72% 30.08 in 10.0 mi SSE 10.4 mph - N/A   Overcast
2:35 AM 57.2 °F 48.2 °F 72% 30.07 in 10.0 mi SSE 10.4 mph 16.1 mph N/A   Overcast
2:55 AM 57.2 °F 48.2 °F 72% 30.07 in 10.0 mi SSE 9.2 mph - N/A   Overcast
3:15 AM 57.2 °F 48.2 °F 72% 30.06 in 10.0 mi SSE 10.4 mph - N/A   Overcast
3:35 AM 57.2 °F 48.2 °F 72% 30.05 in 10.0 mi SSE 10.4 mph 16.1 mph N/A   Overcast
3:55 AM 57.2 °F 48.2 °F 72% 30.05 in 10.0 mi South 11.5 mph 18.4 mph N/A Thunderstorm Overcast
4:15 AM 55.4 °F 48.2 °F 77% 30.10 in 6.0 mi WSW 5.8 mph - 0.12 in Thunderstorm Overcast
4:35 AM 55.4 °F 48.2 °F 77% 30.10 in 10.0 mi South 3.5 mph - 0.16 in   Overcast
4:55 AM 55.4 °F 48.2 °F 77% 30.09 in 8.0 mi SSE 4.6 mph - 0.20 in   Overcast
5:15 AM 55.4 °F 48.2 °F 77% 30.07 in 10.0 mi SSE 6.9 mph - 0.05 in   Overcast
5:35 AM 55.4 °F 48.2 °F 77% 30.07 in 10.0 mi SSE 8.1 mph - 0.09 in   Overcast
5:55 AM 55.4 °F 48.2 °F 77% 30.06 in 10.0 mi SSE 10.4 mph - 0.13 in   Overcast
6:15 AM 55.4 °F 48.2 °F 77% 30.04 in 10.0 mi SSE 12.7 mph 17.3 mph 0.06 in   Overcast
6:35 AM 55.4 °F 48.2 °F 77% 30.01 in 10.0 mi SSE 17.3 mph 23.0 mph 0.10 in   Overcast
6:55 AM 55.4 °F 48.2 °F 77% 30.04 in 10.0 mi South 9.2 mph 19.6 mph 0.11 in   Overcast
7:15 AM 55.4 °F 48.2 °F 77% 30.05 in 10.0 mi SSE 9.2 mph - 0.01 in   Overcast
7:35 AM 55.4 °F 48.2 °F 77% 30.06 in 10.0 mi South 6.9 mph - 0.01 in   Mostly Cloudy
7:55 AM 55.4 °F 48.2 °F 77% 30.04 in 10.0 mi SSE 6.9 mph - 0.01 in   Scattered Clouds
8:15 AM 55.4 °F 50.0 °F 82% 30.06 in 10.0 mi South 10.4 mph - N/A   Overcast
8:35 AM 55.4 °F 50.0 °F 82% 30.04 in 10.0 mi SSE 8.1 mph - N/A   Mostly Cloudy
8:55 AM 57.2 °F 50.0 °F 77% 30.04 in 10.0 mi SSE 10.4 mph 17.3 mph N/A   Mostly Cloudy
9:15 AM 57.2 °F 51.8 °F 82% 30.05 in 10.0 mi SSE 10.4 mph - N/A   Scattered Clouds
9:35 AM 57.2 °F 51.8 °F 82% 30.06 in 10.0 mi SSE 8.1 mph - N/A   Mostly Cloudy
9:55 AM 57.2 °F 51.8 °F 82% 30.06 in 10.0 mi South 8.1 mph - N/A   Overcast
10:15 AM 59.0 °F 53.6 °F 82% 30.06 in 10.0 mi South 10.4 mph - N/A   Mostly Cloudy
10:35 AM 60.8 °F 53.6 °F 77% 30.06 in 10.0 mi South 6.9 mph - N/A   Overcast
10:55 AM 60.8 °F 53.6 °F 77% 30.06 in 10.0 mi South 8.1 mph - N/A   Mostly Cloudy
11:15 AM 60.8 °F 53.6 °F 77% 30.05 in 10.0 mi South 5.8 mph - N/A   Scattered Clouds
11:35 AM 60.8 °F 53.6 °F 77% 30.05 in 10.0 mi SSW 5.8 mph - N/A   Overcast
11:55 AM 60.8 °F 53.6 °F 77% 30.04 in 10.0 mi SSW 6.9 mph - N/A   Overcast
12:15 PM 60.8 °F 53.6 °F 77% 30.03 in 10.0 mi SSW 6.9 mph - N/A   Overcast
12:35 PM 60.8 °F 53.6 °F 77% 30.03 in 10.0 mi SW 5.8 mph - N/A   Overcast
12:55 PM 60.8 °F 53.6 °F 77% 30.03 in 10.0 mi WSW 3.5 mph - N/A   Overcast
1:15 PM 60.8 °F 53.6 °F 77% 30.03 in 10.0 mi WSW 5.8 mph - N/A   Overcast
1:35 PM 60.8 °F 53.6 °F 77% 30.03 in 2.0 mi SW 6.9 mph - N/A   Overcast
1:55 PM 60.8 °F 53.6 °F 77% 30.02 in 2.5 mi WSW 3.5 mph - N/A   Overcast
2:15 PM 60.8 °F 53.6 °F 77% 30.02 in 2.5 mi WSW 4.6 mph - N/A   Overcast
2:35 PM 60.8 °F 53.6 °F 77% 30.02 in 2.0 mi WSW 4.6 mph - N/A   Overcast
2:55 PM 60.8 °F 53.6 °F 77% 30.02 in 2.0 mi WSW 5.8 mph - N/A   Overcast
3:15 PM 60.8 °F 53.6 °F 77% 30.02 in 2.0 mi West 6.9 mph - 0.01 in   Overcast
3:35 PM 59.0 °F 53.6 °F 82% 30.03 in 1.5 mi West 11.5 mph - 0.03 in   Overcast
3:55 PM 57.2 °F 53.6 °F 88% 30.04 in 2.0 mi West 4.6 mph - 0.03 in   Overcast
4:15 PM 59.0 °F 53.6 °F 82% 30.04 in 2.5 mi West 5.8 mph - N/A   Overcast
4:35 PM 57.2 °F 53.6 °F 88% 30.04 in 3.0 mi West 6.9 mph - 0.01 in   Overcast
4:55 PM 57.2 °F 51.8 °F 82% 30.05 in 1.5 mi WNW 8.1 mph - 0.02 in   Overcast
5:15 PM 57.2 °F 51.8 °F 82% 30.05 in 1.8 mi NW 5.8 mph - 0.01 in   Overcast
5:35 PM 57.2 °F 51.8 °F 82% 30.05 in 3.0 mi WNW 4.6 mph - 0.02 in   Overcast
5:55 PM 55.4 °F 51.8 °F 88% 30.06 in 10.0 mi WNW 4.6 mph - 0.02 in   Overcast
6:15 PM 55.4 °F 51.8 °F 88% 30.06 in 10.0 mi WNW 5.8 mph - N/A   Overcast
6:35 PM 55.4 °F 50.0 °F 82% 30.07 in 10.0 mi WNW 9.2 mph - N/A   Overcast
6:55 PM 53.6 °F 48.2 °F 82% 30.07 in 10.0 mi WNW 10.4 mph - N/A   Overcast
7:15 PM 53.6 °F 46.4 °F 77% 30.08 in 10.0 mi WNW 5.8 mph - N/A   Scattered Clouds
7:35 PM 53.6 °F 44.6 °F 72% 30.09 in 10.0 mi WNW 10.4 mph - N/A   Clear
7:55 PM 53.6 °F 42.8 °F 67% 30.10 in 10.0 mi WNW 6.9 mph - N/A   Clear
8:15 PM 51.8 °F 42.8 °F 71% 30.11 in 10.0 mi WNW 6.9 mph - N/A   Clear
8:35 PM 51.8 °F 42.8 °F 71% 30.11 in 10.0 mi WNW 8.1 mph - N/A   Clear
8:55 PM 51.8 °F 41.0 °F 67% 30.11 in 10.0 mi WNW 10.4 mph - N/A   Clear
9:15 PM 50.0 °F 41.0 °F 71% 30.11 in 10.0 mi WNW 10.4 mph - N/A   Clear
9:35 PM 50.0 °F 39.2 °F 66% 30.12 in 10.0 mi WNW 6.9 mph - N/A   Clear
9:55 PM 50.0 °F 39.2 °F 66% 30.12 in 10.0 mi NW 9.2 mph - N/A   Mostly Cloudy
10:15 PM 50.0 °F 37.4 °F 62% 30.12 in 10.0 mi NW 9.2 mph - N/A   Overcast
10:35 PM 50.0 °F 37.4 °F 62% 30.12 in 10.0 mi NNW 10.4 mph 16.1 mph N/A   Overcast
10:55 PM 50.0 °F 37.4 °F 62% 30.12 in 10.0 mi NW 6.9 mph - N/A   Overcast
11:15 PM 48.2 °F 37.4 °F 66% 30.12 in 10.0 mi NW 6.9 mph - N/A   Overcast
11:35 PM 48.2 °F 37.4 °F 66% 30.13 in 10.0 mi NW 5.8 mph - N/A   Mostly Cloudy
11:55 PM 48.2 °F 37.4 °F 66% 30.13 in 10.0 mi NW 4.6 mph - N/A   Scattered Clouds